Terminal Aerodrome Forecast
Issued by NWS Bismarck, ND

Home | Current Version | Previous Version | Graphics & Text | Print | Product List | Glossary On
Versions: 1 2 3 4 5 6 7 8 9 10 11 12 13 14 15 16 17 18 19 20 21 22
000
FTUS43 KBIS 260525
TAFISN
TAF
KISN 260525Z 2606/2706 28015G25KT P6SM BKN035
     FM261200 28013G21KT P6SM BKN025
     FM261600 29017G26KT P6SM SCT035 BKN050
     FM262000 30015G23KT P6SM SCT070
     FM270100 30010KT P6SM FEW070 SCT090=

USA.gov is the U.S. government's official web portal to all federal, state and local government web resources and services.